DW2257 Weather Reports


time (UTC)temp
C
wind
direction
speed
KPH
gust
KPH
rain 1hr
cm
rain 24hr
cm
rain mn
cm
humidity
%
barometer
mb
20260507110148 10 287 0.0 4.8 0.00 0.00 0.00 90 1006.0
20260507104647 10 227 0.0 3.2 0.00 0.00 0.00 90 1006.4
20260507103145 10 269 1.6 4.8 0.00 0.00 0.00 90 1005.9
20260507101642 10 283 0.0 11.3 0.00 0.00 0.00 90 1006.0
20260507100134 10 295 0.0 9.7 0.00 0.00 0.00 90 1005.6
20260507094652 10 250 0.0 14.5 0.00 0.00 0.00 89 1005.7
20260507093152 10 344 4.8 14.5 0.00 0.00 0.00 89 1005.4
20260507091650 11 313 1.6 16.1 0.00 0.00 0.00 88 1005.6
20260507090147 11 310 3.2 11.3 0.00 0.00 0.00 88 1005.6
20260507084645 11 191 1.6 6.4 0.00 0.00 0.00 88 1005.4
20260507083142 12 262 1.6 6.4 0.00 0.00 0.00 86 1005.4
20260507081641 12 309 3.2 16.1 0.00 0.00 0.00 84 1005.7
20260507080133 12 271 3.2 19.3 0.00 0.00 0.00 83 1005.0
20260507074712 12 292 1.6 12.9 0.00 0.00 0.00 82 1005.2
20260507073148 12 348 1.6 14.5 0.00 0.00 0.00 83 1004.6
20260507071639 12 291 3.2 8.0 0.00 0.00 0.00 84 1004.7
20260507070134 13 231 3.2 11.3 0.00 0.00 0.00 83 1004.7
20260507064651 13 227 1.6 14.5 0.00 0.00 0.00 81 1004.7
20260507063151 13 252 4.8 19.3 0.00 0.00 0.00 83 1004.5
20260507061648 13 303 3.2 9.7 0.00 0.00 0.00 88 1004.4
20260507060146 14 332 0.0 11.3 0.00 0.00 0.00 88 1004.6
20260507054640 14 273 9.7 16.1 0.00 0.00 0.00 88 1004.9
20260507053134 14 261 3.2 9.7 0.00 0.00 0.00 89 1004.5
20260507051652 15 319 1.6 16.1 0.00 0.00 0.00 90 1004.8
20260507050150 15 291 8.0 25.7 0.00 0.00 0.00 93 1004.5
20260507044705 15 282 1.6 11.3 0.00 0.00 0.00 94 1004.3
20260507043140 15 263 4.8 8.0 0.00 0.00 0.00 95 1004.3
20260507041634 15 234 4.8 9.7 0.00 0.00 0.00 95 1004.6
20260507040152 15 247 11.3 17.7 0.00 0.00 0.00 95 1004.8
20260507034706 14 231 9.7 16.1 0.00 0.00 0.00 95 1004.4
20260507033137 13 219 6.4 12.9 0.00 0.00 0.00 94 1004.4
20260507031652 13 228 6.4 12.9 0.00 0.00 0.00 94 1004.2
20260507030151 13 163 4.8 14.5 0.00 0.00 0.00 94 1004.0
20260507024648 13 216 8.0 16.1 0.00 0.00 0.00 94 1004.3
20260507023147 13 210 6.4 16.1 0.00 0.00 0.00 94 1004.3
20260507021645 13 209 6.4 16.1 0.00 0.00 0.00 94 1004.2
20260507020146 13 176 4.8 12.9 0.00 0.00 0.00 94 1004.3
20260507014639 13 263 4.8 4.8 0.00 0.00 0.00 94 1004.4
20260507013132 -17 0.0 0.0 0.00 0.00 0.00 -0.1
20260507011709 -17 0.0 0.0 0.00 0.00 0.00 -0.1
20260507010144 -17 0.0 0.0 0.00 0.00 0.00 -0.1
20260507004637 -17 0.0 0.0 0.00 0.00 0.00 -0.1
20260507003154 -17 0.0 0.0 0.00 0.00 0.00 -0.1
20260507001649 -17 0.0 0.0 0.00 0.00 0.00 -0.1
20260507000147 -17 0.0 0.0 0.00 0.00 0.00 -0.1
20260506234648 -17 0.0 0.0 0.00 0.00 0.00 -0.1
20260506233144 -17 0.0 0.0 0.00 0.00 0.00 -0.1
20260506231640 -17 0.0 0.0 0.00 0.00 0.00 -0.1
20260506230133 -17 0.0 0.0 0.00 0.00 0.00 -0.1
20260506224651 -17 0.0 0.0 0.00 0.00 0.00 -0.1
20260506223147 -17 0.0 0.0 0.00 0.00 0.00 -0.1
20260506221644 -17 0.0 0.0 0.00 0.00 0.00 -0.1
20260506220140 -17 0.0 0.0 0.00 0.00 0.00 -0.1
20260506214633 -17 0.0 0.0 0.00 0.00 0.00 -0.1
20260506213149 -17 0.0 0.0 0.00 0.00 0.00 -0.1
20260506211645 -17 0.0 0.0 0.00 0.00 0.00 -0.1
20260506210053 -17 0.0 0.0 0.00 0.00 0.00 -0.1
20260506160139 17 130 11.3 20.9 0.00 0.00 0.00 75 1007.5
20260506154656 17 159 11.3 20.9 0.00 0.00 0.00 75 1007.7
20260506153150 17 136 12.9 20.9 0.00 0.00 0.00 74 1008.0
20260506151647 17 181 12.9 22.5 0.00 0.00 0.00 74 1008.1
20260506150138 17 160 14.5 24.1 0.00 0.00 0.00 75 1008.2
20260506144656 17 165 8.0 19.3 0.00 0.00 0.00 76 1008.1
20260506143213 17 168 14.5 22.5 0.00 0.00 0.00 77 1008.0
20260506141647 16 169 12.9 19.3 0.00 0.00 0.00 78 1008.1
20260506140138 16 171 9.7 19.3 0.00 0.00 0.00 80 1008.1
20260506134654 15 195 12.9 20.9 0.00 0.00 0.00 82 1008.5
20260506133149 15 161 9.7 20.9 0.00 0.00 0.00 82 1008.7
20260506131639 15 142 9.7 16.1 0.00 0.00 0.00 84 1008.6
20260506130216 15 159 11.3 19.3 0.00 0.00 0.00 83 1008.6
20260506124650 15 195 8.0 16.1 0.00 0.00 0.00 84 1009.0
20260506123151 15 152 8.0 17.7 0.00 0.00 0.00 85 1008.6
20260506121646 14 162 9.7 14.5 0.00 0.00 0.00 86 1008.5
20260506120140 14 131 8.0 17.7 0.00 0.00 0.00 87 1008.9
20260506114654 14 187 8.0 14.5 0.00 0.00 0.00 87 1009.3
20260506113151 13 175 8.0 19.3 0.00 0.00 0.00 87 1009.0
20260506111647 13 144 6.4 14.5 0.00 0.00 0.00 87 1009.1